Other Public Products
Issued by NWS Charleston, SC

Current Version | Previous Version | Graphics & Text | Print | Product List | Glossary On
Versions: 1 2 3 4 5 6 7 8 9 10 11 12 13 14 15 16 17 18 19 20 21 22 23 24 25 26 27 28 29 30 31 32 33 34 35 36 37 38 39 40 41 42 43 44 45 46 47 48 49 50
000 FPUS82 KCHS 100412 OPUCHS TEST...KCHS/KSAV Gateway Observations...TEST National Weather Service Charleston SC 1100 PM EST FRI DEC 09 2016 NOTE: "fair" indicates few or no clouds below 12,000 feet with no significant weather and/or obstructions to visibility. SCZ050-WAZ558-NCZ071-TXZ119-213-PAZ071-DCZ001-FLZ074-172-MI076- NYZ176-178-MAZ016-IL014-TNZ027-NJZ106-GAZ044-MD014-100500- ...Gateway Observations for Charleston International... CITY SKY/WX TMP DP RH WIND PRES REMARKS Chas Airport PTCLDY 35 25 66 NE7 30.47S WCI 29 Seattle LGT RAIN 35 31 85 SE12 29.81F WCI 27 Charlotte CLEAR 29 13 51 NE7 30.48R WCI 22 Dallas DFW MOCLDY 34 21 59 E6 30.50S WCI 29 Dallas Love MOCLDY 36 22 56 SE5 30.52R WCI 32 Philladelphia PTCLDY 32 18 56 W9 30.34F WCI 24 Wash National CLEAR 32 17 54 W8 30.44R WCI 25 Baltimore CLEAR 28 17 63 W8 30.40R WCI 20 Miami CLOUDY 65 58 78 N10 30.23S Detroit FLURRIES 26 19 74 W13 30.42S WCI 15 Newark PTCLDY 30 13 49 W8 30.30S WCI 22 Laguardia CLEAR 33 14 45 NW17 30.29S WCI 22 J F K PTCLDY 32 10 40 NW17 30.30S WCI 21 Boston Logan PTCLDY 26 9 48 NW14G24 30.18 WCI 14 Ft. Lauderdale CLOUDY 66 59 78 N10 30.21S Chicago O`Hare CLOUDY 19 12 74 W8 30.50R WCI 9 Chicago Midway MOCLDY 20 12 71 SW6 30.52R WCI 12 Houston Bush CLOUDY 45 29 53 NE8 30.52S Houston Hobby CLOUDY 48 29 47 NE8 30.51F Nashville CLEAR 27 17 66 N7 30.58R WCI 19 Atlanta CLEAR 32 17 54 NW7 30.46R WCI 26 $$ GAZ044-118-TXZ119-213-NCZ071-DCZ001-MDZ014-506-PAZ021-071-NJZ106- NYZ176-178-MAZ106-OHZ011-021-055-MIZ076-KYZ091-ILZ014-INZ047- MNZ060-100500- ...Gateway Observations for Savannah International... CITY SKY/WX TMP DP RH WIND PRES REMARKS Savannah Arpt PTCLDY 35 28 75 N5 30.45S WCI 31 Atlanta CLEAR 32 17 54 NW7 30.46R WCI 26 Charlotte CLEAR 29 13 51 NE7 30.48R WCI 22 Dallas DFW MOCLDY 34 21 59 E6 30.50S WCI 29 Houston Bush CLOUDY 45 29 53 NE8 30.52S Wash National CLEAR 32 17 54 W8 30.44R WCI 25 Wash Dulles PTCLDY 28 15 58 W5 30.43R WCI 23 Baltimore CLEAR 28 17 63 W8 30.40R WCI 20 Philadelphia PTCLDY 32 18 56 W9 30.34F WCI 24 Newark PTCLDY 30 13 49 W8 30.30S WCI 22 Laguardia CLEAR 33 14 45 NW17 30.29S WCI 22 J F K PTCLDY 32 10 40 NW17 30.30S WCI 21 Boston PTCLDY 26 9 48 NW14G24 30.18 WCI 14 Pittsburg CLOUDY 25 20 81 W8 30.40R WCI 16 Akron CLOUDY 25 19 78 W12 30.40S WCI 14 Cleveland CLOUDY 27 20 75 W20 30.43S WCI 13 Cincinnati MOCLDY 22 14 71 CALM 30.51S Columbus N/A 24 21 91 SW8 30.50F WCI 14 Detroit FLURRIES 26 19 74 W13 30.42S WCI 15 Chicago O`Hare CLOUDY 19 12 74 W8 30.50R WCI 9 Minneapolis MOCLDY 11 3 70 W9 30.50R WCI -2 Indianapolis PTCLDY 20 14 77 W6 30.51S WCI 12 $$

USA.gov is the U.S. government's official web portal to all federal, state and local government web resources and services.